GFSGL_925_spd_015.txt.gz
Wind_Speed
10 9 7 8 6 7 10 11 10 12 12 13 15 20 21 26 28 31 28 25 23 22 23 25 27 29 33 30 27 28 25 19 12 7 18 21 21 20 17 12 12 11 15
12 10 8 10 7 7 11 11 10 14 13 14 16 19 24 25 29 30 28 27 28 24 22 25 26 30 28 29 29 30 21 20 19 13 15 18 17 17 16 18 14 11 10
17 13 10 10 8 7 11 11 14 13 14 13 17 18 21 21 24 24 24 24 23 23 24 27 27 29 30 30 28 21 19 14 17 18 14 18 16 15 17 20 13 13 13
21 15 12 10 9 8 10 10 11 15 15 12 16 17 19 20 21 23 22 19 21 22 22 24 27 29 31 28 25 28 17 14 23 23 22 22 19 16 18 17 14 15 14
23 18 13 11 8 7 10 12 12 13 15 15 14 13 16 15 17 21 21 21 20 20 21 21 23 23 25 28 28 22 9 20 24 22 17 13 13 14 18 19 17 14 17
26 21 16 12 8 11 12 13 14 14 14 19 16 14 14 20 18 19 19 20 19 20 22 21 21 28 32 26 20 11 9 27 22 20 17 20 21 20 18 16 16 16 8
28 23 19 15 12 15 13 12 12 17 16 16 17 19 20 19 21 21 22 22 20 19 24 24 27 29 26 21 16 8 22 22 19 23 25 26 23 24 22 20 19 19 20
29 26 22 17 17 15 13 12 17 20 16 20 21 22 23 22 22 20 20 19 18 21 25 25 25 21 17 18 15 15 16 17 14 12 22 14 17 17 15 17 16 19 11
25 28 26 21 21 17 18 16 14 17 16 16 19 21 23 22 21 21 21 21 22 22 20 20 20 18 17 18 18 17 13 11 9 8 7 5 5 7 8 8 8 5 4
24 30 29 26 25 20 22 21 17 15 16 16 16 17 18 21 19 19 19 19 20 20 22 20 18 18 18 17 15 14 12 9 7 6 5 4 3 2 2 2 2 1 1
26 30 31 29 29 25 26 22 20 17 15 19 16 15 16 18 16 16 17 19 19 20 20 20 18 18 17 14 15 14 13 13 12 7 5 3 5 5 3 3 7 5 5
26 28 33 30 32 29 28 26 23 19 17 13 19 18 15 15 15 15 12 17 15 15 18 18 18 18 17 15 15 13 13 12 9 8 5 10 17 16 15 12 10 8 8
28 29 34 33 32 32 32 29 25 23 17 18 21 20 18 15 14 17 15 12 16 15 16 20 18 20 20 16 13 13 11 10 11 11 20 20 19 18 17 15 12 12 13
29 29 36 36 33 33 32 31 29 27 22 22 20 23 20 21 19 19 19 15 16 15 20 20 21 20 18 15 12 9 9 10 11 22 22 19 15 13 14 11 11 11 16
29 30 36 37 35 35 34 34 32 29 29 23 25 22 22 27 24 24 27 23 18 18 23 21 20 19 19 16 12 10 14 15 22 22 22 19 15 12 13 12 15 16 19
29 30 32 31 33 32 32 26 27 26 25 28 22 24 24 24 23 24 29 27 23 22 22 22 20 19 18 16 16 16 16 20 24 21 18 15 15 13 15 13 14 14 14
28 29 31 31 30 29 29 29 26 27 23 27 28 24 26 25 27 24 29 32 28 24 22 20 19 19 20 18 18 21 27 27 23 18 17 14 14 16 15 12 12 11 12
34 33 32 30 31 27 29 29 28 26 25 31 31 28 16 24 30 27 29 33 32 32 30 26 23 20 21 24 32 32 30 25 20 19 16 19 18 15 12 11 11 11 9
36 34 33 30 33 32 31 30 30 28 29 28 31 27 27 19 31 34 34 38 37 36 33 28 23 16 27 33 35 32 28 24 22 22 21 18 17 15 15 11 9 8 5
37 34 34 33 30 33 31 29 28 27 28 30 34 34 26 23 24 37 40 37 37 36 34 28 19 28 36 37 35 30 28 25 25 23 20 19 17 14 13 10 6 4 5
31 36 37 29 31 30 31 28 28 29 27 27 33 38 36 33 30 37 43 39 34 32 30 25 31 36 38 37 35 31 29 27 24 21 20 17 17 16 12 8 6 4 4
31 32 38 33 27 29 28 33 29 30 31 29 29 38 41 40 40 41 42 42 37 30 22 34 39 41 41 39 36 35 32 30 26 21 18 17 15 13 11 6 5 4 5
31 31 34 32 32 30 32 31 32 32 30 33 34 33 43 39 35 39 41 39 34 23 26 37 42 39 36 36 38 37 38 33 26 22 20 18 14 11 9 5 6 4 8
27 27 32 31 31 30 33 30 28 29 31 36 37 40 43 44 36 33 32 33 36 33 34 42 41 39 40 40 38 35 31 29 26 23 19 18 13 10 6 9 5 6 6
9 26 26 31 29 32 30 34 36 36 24 26 34 35 31 31 34 37 39 41 40 40 42 43 42 42 40 39 37 34 31 28 25 23 19 16 12 12 10 8 6 5 6
8 9 12 23 32 31 31 31 29 32 27 22 25 27 31 34 37 40 40 39 43 45 43 42 44 44 41 36 28 26 26 25 23 20 17 15 14 10 7 8 4 4 6

GFSGL_925_spd_021.txt.gz
Wind_Speed
9 6 4 3 3 4 5 3 4 4 5 9 11 13 11 12 14 14 12 13 14 14 14 16 16 17 19 19 20 16 18 17 13 14 23 27 32 27 21 17 14 12 10
9 8 7 4 4 5 6 4 4 6 7 10 11 13 13 14 16 16 16 15 15 14 13 15 20 20 19 19 21 18 16 22 23 18 21 20 28 25 18 15 11 9 7
12 11 9 5 6 6 7 5 6 7 10 10 11 15 16 16 15 14 16 14 13 13 15 18 21 23 23 22 20 19 18 24 24 21 15 21 23 22 17 11 8 7 6
14 12 9 5 6 6 6 6 6 8 10 13 12 13 15 14 13 14 16 16 14 14 16 19 22 22 27 27 23 24 25 24 21 21 21 19 19 18 15 12 8 8 6
16 13 9 9 9 8 9 10 9 10 12 14 14 15 15 16 15 16 16 16 15 15 16 19 20 24 28 24 24 23 25 22 18 20 16 15 14 16 13 13 10 4 2
19 16 12 10 7 8 9 9 10 10 12 15 15 13 16 15 12 12 11 15 16 18 19 19 20 22 26 21 24 22 18 17 15 13 9 16 16 16 12 12 9 3 1
22 18 15 12 9 11 11 9 11 11 11 13 15 13 12 16 17 14 14 15 16 15 17 19 23 25 25 23 19 13 7 9 13 15 18 17 16 15 13 12 8 8 5
24 21 18 14 13 13 14 12 10 9 10 12 16 14 13 12 11 13 15 17 15 16 19 22 25 25 25 20 13 7 7 10 11 11 11 13 9 12 10 8 7 8 4
27 24 21 18 18 15 14 13 10 12 13 15 16 17 16 16 14 13 15 17 18 18 18 20 26 26 21 14 6 6 12 12 11 10 9 9 6 8 10 10 11 11 4
29 28 25 22 21 17 16 16 12 15 16 15 16 16 14 16 14 12 13 17 19 18 16 20 20 19 15 11 9 15 15 12 11 13 13 12 12 12 10 8 8 7 7
33 29 27 26 23 21 21 19 16 16 17 16 15 15 14 14 15 13 16 19 20 22 22 20 20 15 11 12 13 15 16 17 15 16 16 14 15 15 14 13 12 7 10
33 31 29 28 25 24 24 23 20 19 18 17 15 14 14 13 14 16 15 16 18 22 22 20 18 15 13 13 14 14 12 14 14 14 15 16 16 16 14 11 10 11 13
34 33 31 30 28 27 27 26 24 22 21 20 19 17 16 15 15 14 13 13 15 17 18 17 15 14 13 13 13 14 15 15 15 17 17 16 16 17 19 20 19 19 18
33 34 33 32 31 29 29 28 27 27 24 23 22 21 20 18 18 17 16 16 16 14 16 17 17 17 14 15 16 16 17 16 15 15 18 20 22 24 21 19 22 19 18
34 33 32 33 34 32 31 31 30 30 29 28 26 23 22 22 22 20 19 18 19 17 17 18 19 20 19 20 21 19 17 16 17 20 23 24 24 25 22 21 22 13 14
29 28 31 29 31 30 30 29 30 29 29 29 26 25 25 22 20 21 21 21 18 20 21 24 25 25 26 25 23 21 19 19 22 26 27 26 26 24 23 23 16 18 21
33 30 30 30 30 28 26 24 23 28 28 28 27 26 25 24 24 22 21 21 23 21 23 26 29 29 31 29 26 24 24 24 27 29 28 27 26 25 26 24 22 22 18
35 36 35 31 31 29 29 29 27 24 25 29 30 29 26 24 25 24 22 24 24 27 28 30 33 34 33 32 31 29 26 26 31 31 29 29 28 29 28 26 24 22 21
33 35 33 32 31 31 29 27 28 26 25 26 30 29 30 28 26 25 25 30 31 33 33 31 35 36 36 34 33 30 28 30 34 35 32 31 30 30 27 25 24 23 21
34 34 34 31 29 30 28 26 25 26 26 27 30 34 32 30 32 30 29 32 34 37 39 39 36 36 35 33 31 31 31 32 36 37 36 33 31 29 26 27 25 21 16
31 34 36 30 30 30 29 28 28 27 27 28 34 34 35 36 36 37 34 34 39 40 39 39 40 38 36 34 34 35 36 36 37 39 38 36 35 33 30 28 25 22 18
30 32 36 32 29 28 29 29 28 29 29 29 32 34 34 37 38 39 41 38 35 39 43 43 43 45 44 42 40 37 36 36 38 40 40 39 37 36 33 31 24 19 17
31 32 31 27 28 28 30 28 28 29 29 31 32 34 35 37 40 41 43 44 43 40 39 43 44 43 43 41 42 42 39 38 39 41 37 33 34 33 29 23 23 22 18
32 31 31 30 28 30 29 29 32 33 32 32 33 35 37 38 39 41 43 44 43 44 43 42 44 46 45 43 41 41 39 34 37 41 41 36 33 29 20 21 24 21 20
31 31 30 30 29 31 30 30 31 32 36 34 34 36 38 39 39 40 40 41 40 40 42 42 42 43 43 40 40 40 37 37 40 42 37 37 33 26 24 26 21 20 19
32 31 28 27 28 29 28 30 33 35 36 38 39 39 39 40 39 39 39 37 37 37 37 37 38 38 38 38 38 36 36 38 38 38 39 39 34 29 28 28 25 21 18

GFSGL_925_spd_024.txt.gz
Wind_Speed
9 6 3 2 2 4 4 4 4 3 6 9 12 10 9 10 12 11 10 10 10 11 11 10 13 15 17 20 18 17 22 17 13 13 29 32 29 30 26 23 20 16 14
9 6 5 3 2 5 5 6 5 5 9 9 12 12 10 11 10 11 12 12 13 13 13 13 16 15 17 18 17 20 21 23 25 16 28 31 30 28 25 22 17 13 10
9 9 8 4 3 5 7 8 7 7 10 11 12 12 12 12 14 12 13 13 13 13 14 12 15 19 20 19 18 18 21 25 23 25 18 29 28 26 21 16 13 12 9
12 11 9 6 5 5 8 9 7 7 10 12 13 15 14 13 13 15 14 12 12 12 13 15 15 17 19 20 20 21 23 23 25 23 25 25 23 23 21 17 12 11 9
14 12 9 8 8 7 10 10 9 8 11 13 16 15 14 14 15 17 16 15 14 14 14 17 17 16 17 19 23 25 24 23 23 21 19 21 22 22 19 13 12 11 8
16 13 12 12 9 9 9 11 10 9 12 13 15 17 16 14 16 16 17 16 14 16 16 15 17 23 22 22 24 25 20 26 23 19 17 18 19 21 15 16 16 10 4
18 16 15 13 11 9 8 9 9 9 11 11 12 14 15 15 15 13 13 17 17 17 18 19 21 22 25 26 22 20 17 16 16 19 24 21 22 22 19 19 15 11 9
21 18 16 14 14 12 10 9 9 8 9 12 11 8 8 16 13 10 13 17 17 18 19 21 26 26 25 24 18 12 7 8 9 7 16 17 17 19 18 17 16 16 14
24 20 18 16 17 16 12 8 7 9 11 14 12 14 14 15 14 15 20 18 21 21 22 25 28 26 22 15 9 5 12 12 11 9 12 13 14 15 13 14 16 15 5
28 24 21 19 19 18 15 11 10 11 13 15 13 12 14 17 15 15 18 22 23 21 19 22 26 23 17 9 6 16 16 13 13 14 14 11 12 14 11 9 12 15 11
30 26 23 21 20 18 17 14 15 15 14 15 14 11 10 11 13 13 15 21 24 23 22 21 20 15 10 6 9 13 13 13 16 18 18 17 15 13 11 11 11 11 12
29 29 25 23 22 20 19 16 16 17 17 16 16 13 10 10 9 12 14 17 19 24 25 22 19 14 8 8 10 13 14 17 21 20 18 18 18 17 17 16 15 13 12
29 31 28 26 24 22 23 21 18 18 18 16 16 15 13 12 12 12 11 12 16 20 21 19 15 12 12 13 13 12 12 15 18 20 21 20 19 20 21 21 19 17 16
31 32 30 29 26 24 24 23 21 19 19 18 16 15 14 13 13 13 12 13 14 15 17 17 16 15 14 13 14 15 16 18 20 22 22 21 23 24 23 21 21 18 16
31 31 31 30 30 27 26 26 26 23 22 23 22 21 19 17 17 15 15 15 15 13 16 16 16 16 16 16 17 17 18 18 18 21 23 25 25 23 21 20 20 16 13
28 29 29 30 31 30 29 25 26 25 25 22 20 21 21 19 17 17 15 14 16 16 16 17 18 19 19 19 21 20 19 19 20 21 25 26 28 25 23 22 18 16 19
33 31 31 30 30 28 27 26 21 24 24 25 24 22 21 19 18 19 19 19 18 17 19 20 23 25 25 24 25 25 23 21 20 24 27 28 29 27 27 24 19 18 17
36 38 36 31 29 28 28 27 25 22 22 25 27 27 26 23 20 20 21 21 20 23 24 25 26 27 29 29 29 28 25 22 23 23 25 27 29 30 27 24 23 22 20
35 36 35 34 32 30 29 27 28 25 24 23 28 27 27 26 25 23 25 27 28 28 30 29 28 29 30 31 32 32 30 27 26 26 29 30 29 29 24 23 26 27 26
35 37 36 33 30 29 27 26 25 24 24 24 29 32 30 29 30 30 30 30 30 31 32 32 33 30 29 31 33 33 33 30 27 29 32 35 35 33 29 28 29 30 25
33 37 38 32 31 31 29 28 27 25 25 27 33 35 35 37 37 37 37 36 35 35 34 33 33 34 34 32 32 33 34 34 33 32 33 35 31 28 29 30 28 27 22
32 34 37 33 30 29 30 30 29 28 27 27 30 34 35 35 34 36 39 41 40 37 36 35 36 36 36 38 37 35 36 37 35 33 33 35 34 32 32 28 29 24 21
30 31 32 29 30 29 31 28 28 29 28 28 27 29 33 35 36 38 40 40 40 41 40 37 36 37 37 37 39 41 41 40 41 41 39 38 34 33 30 30 29 25 18
33 32 33 31 28 30 29 29 29 31 29 29 31 32 35 37 38 39 39 39 40 39 39 40 41 39 38 37 39 40 38 32 38 39 37 37 35 34 37 35 29 26 21
28 30 29 29 28 30 29 29 29 29 31 30 31 33 34 36 37 39 39 38 38 37 38 37 38 39 40 40 39 39 38 38 37 36 37 37 36 41 42 38 31 23 19
30 31 28 26 26 27 27 28 28 31 31 32 34 35 34 35 36 35 36 36 36 36 35 35 35 35 35 34 34 35 31 32 34 35 37 38 41 40 41 36 31 27 24

GFSGL_925_spd_030.txt.gz
Wind_Speed
10 8 6 4 2 1 1 3 4 8 10 9 8 7 8 8 8 7 7 8 8 7 6 6 5 7 8 8 8 6 4 12 12 16 25 39 36 41 38 36 31 27 22
10 8 6 4 2 0 3 3 4 8 10 10 9 7 7 7 6 6 6 7 8 8 6 6 6 7 8 8 7 9 13 22 26 23 28 37 34 37 36 32 28 24 21
9 8 6 4 2 3 4 3 6 9 9 11 9 7 6 6 6 5 5 7 8 8 8 9 8 11 10 6 9 17 17 25 25 27 28 34 34 36 32 29 25 21 19
9 8 6 4 3 5 5 5 7 9 10 11 9 8 6 6 7 8 8 8 9 9 8 10 9 9 10 10 12 15 22 27 26 26 28 28 30 28 27 26 22 20 18
10 9 7 5 5 6 6 6 7 9 10 10 10 9 8 8 8 10 9 9 9 10 9 8 7 9 9 9 12 16 27 24 26 27 25 26 25 24 21 21 21 22 16
10 9 8 8 6 8 8 9 8 10 10 12 10 9 9 7 11 11 11 11 10 10 11 9 9 11 10 12 12 19 28 28 26 25 24 23 22 22 24 26 22 19 15
11 10 10 9 8 8 9 10 10 9 11 10 11 10 10 12 13 13 13 11 11 10 12 12 12 13 13 14 16 19 26 31 31 32 28 24 25 28 28 24 19 17 16
13 12 12 11 9 8 9 9 10 10 10 12 12 12 14 11 14 13 12 11 11 10 11 14 15 17 19 17 20 21 22 25 27 27 29 30 32 26 24 27 16 14 17
15 14 13 12 10 9 8 8 10 12 10 9 10 13 17 15 13 15 10 12 12 14 14 20 20 25 21 20 25 21 22 22 23 25 29 27 23 21 20 20 18 17 17
18 15 14 12 11 10 8 8 9 11 10 10 12 10 21 17 14 12 11 13 14 14 16 18 20 21 16 15 23 23 20 19 22 21 22 21 18 21 16 16 18 14 12
19 17 15 13 12 10 9 10 11 11 11 11 13 14 15 15 14 14 13 15 16 17 17 19 21 14 10 18 16 17 20 24 22 20 20 18 15 15 13 9 13 7 13
20 18 16 16 13 13 10 11 12 12 12 11 12 14 13 13 14 18 18 16 21 21 18 17 17 14 15 18 15 20 24 22 19 18 18 18 18 17 13 10 8 7 4
22 20 18 18 16 14 13 12 12 13 13 13 12 13 14 13 13 17 16 18 24 22 16 16 17 13 14 13 18 23 21 17 18 18 18 16 15 13 13 12 11 10 9
23 22 20 19 18 16 15 14 13 13 13 13 13 13 14 14 16 16 15 17 13 16 17 16 15 11 10 16 19 16 14 14 15 15 14 13 12 13 13 12 12 12 10
25 24 22 20 20 18 17 16 14 13 12 13 12 14 15 15 17 18 21 20 19 18 18 15 13 13 14 15 14 13 14 14 14 14 15 14 15 15 14 14 13 12 8
27 25 24 22 21 20 19 15 13 11 16 10 11 11 13 12 18 20 20 19 20 22 17 15 15 16 17 16 15 15 14 15 14 14 14 15 16 16 15 14 14 14 12
28 26 25 24 23 21 21 19 18 13 15 18 16 14 9 14 17 19 19 18 18 19 16 15 15 16 16 17 18 18 18 16 15 16 16 16 16 16 17 16 16 15 13
32 29 26 27 24 23 22 21 20 20 19 17 20 17 16 13 17 20 19 17 16 17 16 15 16 16 18 18 19 19 19 18 18 18 18 18 18 17 17 16 16 16 15
33 31 29 26 24 24 22 22 21 20 20 20 20 20 20 20 17 19 20 19 19 20 21 18 17 18 19 19 19 19 19 19 19 19 19 19 19 19 18 18 17 17 16
34 32 34 27 25 25 24 23 22 21 20 20 22 22 23 24 23 23 24 24 24 23 23 23 22 21 20 20 20 20 21 21 20 20 20 21 20 20 20 20 20 19 20
32 31 36 28 27 27 27 25 25 24 23 22 22 23 27 29 29 28 28 28 29 27 25 25 24 24 24 23 23 24 23 22 24 26 24 25 25 25 23 22 22 21 23
32 30 34 32 27 27 28 27 27 26 25 25 24 23 29 29 27 28 29 29 30 30 28 26 26 26 27 26 26 25 26 28 28 27 27 26 25 25 24 24 24 26 26
31 31 30 32 30 27 26 27 27 27 27 26 25 25 27 30 29 26 26 26 26 26 27 28 28 27 26 27 28 29 30 29 28 28 28 27 27 26 26 26 26 27 27
28 29 29 32 31 29 27 28 27 26 26 26 27 27 26 26 28 29 28 26 26 26 26 26 27 28 28 27 28 28 28 27 27 27 29 28 27 28 26 27 29 28 28
26 26 26 25 27 29 28 27 28 27 27 27 27 27 27 27 26 27 28 29 28 27 27 27 27 28 30 31 30 30 29 30 29 26 24 25 26 25 27 27 26 27 26
27 24 24 23 24 24 25 23 25 25 26 27 28 28 28 29 29 28 27 27 29 29 29 28 29 29 28 29 33 33 31 31 30 31 26 24 25 27 28 27 28 30 37

GFSGL_925_spd_033.txt.gz
Wind_Speed
11 8 6 5 4 1 0 2 4 6 7 8 6 7 6 7 6 5 5 6 6 5 7 6 2 8 9 8 6 4 4 9 10 8 20 33 41 41 35 40 39 32 27
10 8 6 4 1 3 2 4 4 7 9 8 8 6 6 8 6 5 6 8 6 4 3 4 5 6 8 8 8 8 8 14 20 20 27 31 36 39 43 39 32 28 26
10 9 6 4 3 4 4 3 5 6 8 8 9 6 5 6 6 5 6 7 7 4 4 4 4 6 7 10 15 19 21 20 24 30 25 35 39 37 36 32 29 30 25
10 9 8 7 4 6 5 5 7 8 6 9 8 5 6 5 5 5 7 8 7 7 7 7 6 8 9 13 20 23 25 22 26 30 32 32 31 31 32 29 25 25 25
10 9 8 8 6 9 6 7 7 6 5 6 7 7 6 7 6 6 8 8 8 8 6 7 7 11 10 11 22 25 27 26 25 27 26 26 26 25 23 22 26 27 21
11 10 8 11 6 8 8 10 9 9 9 9 8 8 7 7 10 9 8 6 5 6 9 10 11 13 12 14 17 27 32 31 27 23 27 25 20 22 28 26 24 22 13
12 12 10 12 8 10 8 9 10 9 9 11 10 9 8 9 11 10 9 7 6 7 9 11 11 13 14 18 20 26 29 28 27 29 30 26 28 30 31 26 25 15 14
14 13 12 11 12 10 10 10 10 10 12 13 13 11 13 11 14 11 7 8 7 10 10 10 11 13 15 19 22 27 27 26 30 27 29 31 32 29 27 31 28 13 18
15 15 13 11 15 13 12 10 11 10 10 12 12 14 12 11 16 10 7 8 9 11 12 14 16 14 17 21 26 31 29 29 27 30 31 29 27 29 26 25 17 18 16
17 15 14 12 10 9 7 10 10 9 9 9 11 12 14 11 15 8 10 9 10 16 18 20 19 16 21 21 21 28 27 30 30 31 27 27 22 21 25 18 19 16 15
18 16 15 13 12 10 8 10 11 11 11 12 12 13 15 12 11 10 9 11 10 17 17 17 14 13 18 21 20 23 26 30 29 28 21 23 22 21 21 17 18 8 14
19 17 16 14 14 12 9 10 12 13 12 15 16 13 10 9 11 10 10 12 15 17 21 17 14 15 19 16 15 25 28 27 24 22 21 19 19 19 17 13 12 9 6
20 19 17 16 13 14 11 12 13 11 11 14 15 16 14 12 12 14 11 16 17 14 19 16 13 16 15 13 19 26 23 18 21 21 20 19 19 18 19 15 12 10 6
22 21 19 18 16 15 14 13 14 12 9 14 15 15 17 16 16 14 16 16 18 15 20 17 16 15 9 17 22 25 16 19 20 19 19 19 18 13 13 13 11 11 9
23 22 21 20 19 17 15 13 11 9 8 10 15 20 18 18 19 19 22 21 18 17 18 15 13 12 13 15 16 14 12 12 12 12 13 14 12 14 14 15 13 14 11
23 23 23 21 22 20 18 14 5 10 7 7 8 11 12 17 26 22 21 18 15 23 17 16 16 17 18 18 19 17 17 16 17 17 17 15 16 18 17 16 16 15 14
24 24 23 21 22 21 21 19 17 6 12 9 8 8 14 23 24 26 23 19 17 22 16 15 16 17 17 19 20 20 18 18 16 16 17 17 17 18 19 17 18 17 18
27 26 23 24 23 22 22 20 20 20 17 16 13 11 15 18 19 24 26 22 19 21 20 19 17 17 18 20 21 21 21 20 19 19 19 20 20 20 19 20 20 20 19
30 27 26 25 23 22 21 21 21 21 21 21 21 18 18 18 20 22 23 21 21 22 22 21 17 18 20 21 21 23 23 24 24 23 23 22 23 22 22 22 22 21 21
30 28 29 24 23 23 22 21 21 21 22 23 24 24 20 24 20 21 23 22 22 22 23 23 21 20 21 23 24 24 24 23 22 24 24 23 23 24 23 23 23 23 22
30 28 32 25 25 25 24 23 22 22 22 22 24 27 31 28 28 27 26 27 26 24 24 24 24 24 23 23 24 24 25 24 25 25 26 25 24 24 25 24 23 23 21
29 29 32 30 26 26 25 24 24 23 23 23 23 23 36 32 29 28 29 29 31 30 28 25 25 26 27 28 28 26 27 27 27 27 26 27 25 26 25 25 23 22 19
29 29 29 30 28 26 26 26 25 25 24 24 24 22 32 30 27 29 29 29 29 30 30 29 28 27 28 26 27 29 29 29 28 27 26 26 27 26 25 25 24 21 19
30 30 29 29 30 27 26 26 26 26 26 25 25 25 26 29 28 28 27 28 29 29 30 29 30 31 29 28 28 28 29 29 27 26 28 27 25 25 25 23 21 22 18
28 28 28 27 29 29 27 26 26 27 27 26 25 25 26 26 27 27 27 28 26 28 29 30 31 33 34 33 31 31 30 31 31 28 25 26 26 25 23 21 20 18 22
29 29 28 27 27 27 27 27 26 27 26 27 26 24 26 26 27 27 28 28 30 31 30 31 32 32 31 31 34 35 34 32 31 30 27 23 21 22 22 22 22 20 23

GFSGL_925_spd_036.txt.gz
Wind_Speed
15 11 9 7 4 4 5 5 5 6 9 7 6 6 5 7 5 5 4 5 7 6 6 4 6 2 7 12 13 11 11 13 13 14 22 25 32 37 37 41 40 41 33
14 13 15 7 8 6 6 6 6 8 8 7 6 7 7 6 4 2 5 5 7 8 8 6 10 8 9 9 7 8 12 21 26 20 25 27 32 37 41 41 37 32 31
14 14 10 11 6 8 5 6 7 7 6 13 9 11 9 7 5 4 4 5 6 5 7 7 9 13 14 11 12 12 17 24 27 29 23 26 33 37 36 38 35 32 29
13 15 18 10 9 8 6 8 8 5 2 19 9 9 8 7 5 6 6 4 4 5 7 12 10 12 11 11 14 16 21 25 28 28 29 30 32 31 32 33 31 30 28
14 18 16 12 12 10 9 8 8 6 6 15 11 11 7 5 6 8 6 6 5 8 8 9 9 12 10 15 20 23 25 26 28 27 26 31 31 29 24 27 28 27 23
14 19 17 11 16 11 10 11 10 10 9 12 11 8 6 8 7 7 6 6 6 8 13 17 15 12 15 17 21 28 29 31 29 29 30 28 24 25 31 30 29 24 10
14 20 20 15 13 11 10 13 11 12 12 11 10 8 8 11 10 8 6 7 9 11 14 16 15 14 17 22 26 26 29 26 28 33 32 28 31 33 34 26 25 21 15
15 17 18 16 13 11 11 13 11 11 15 14 12 12 11 14 12 10 8 9 12 12 15 15 17 17 20 25 28 30 28 29 27 29 33 37 38 37 36 37 27 19 23
17 15 23 18 18 14 13 13 13 12 13 12 10 15 12 17 10 9 9 13 15 17 14 14 15 19 18 24 31 31 31 27 29 31 32 33 33 33 34 29 19 24 17
18 16 17 23 19 17 14 14 12 12 12 15 14 14 12 17 10 9 10 15 18 20 19 15 16 19 20 28 33 33 30 33 34 32 31 28 26 27 31 21 23 19 19
19 17 14 19 18 18 14 13 15 13 15 15 13 14 11 12 10 8 7 12 20 21 18 16 18 20 20 26 31 33 32 36 36 34 28 24 24 23 30 19 19 14 22
20 19 18 20 16 15 15 16 16 17 18 16 15 17 13 12 8 8 9 13 17 21 15 15 18 19 20 21 26 29 34 33 29 27 24 21 22 23 26 18 13 13 11
21 20 22 17 21 17 19 18 16 17 17 15 14 14 13 11 12 12 13 15 15 17 11 16 20 16 13 20 24 26 32 27 22 20 20 20 22 22 19 19 14 12 9
21 22 23 18 22 17 18 17 14 17 20 17 15 15 17 15 15 16 17 16 17 19 17 18 20 17 17 28 27 31 23 24 25 22 21 20 21 21 24 23 15 12 10
22 23 22 19 21 18 15 14 11 6 20 23 19 19 20 19 17 20 24 17 19 21 19 20 17 15 23 24 23 25 19 23 26 24 23 23 23 24 21 21 16 15 13
22 23 22 20 19 19 16 10 11 13 9 19 23 22 20 20 21 22 24 20 20 21 19 15 15 16 17 18 19 18 15 22 21 20 23 26 26 23 19 19 20 22 22
24 23 23 21 21 20 18 16 12 12 12 13 18 23 24 26 28 26 23 20 20 23 16 18 19 20 21 21 21 19 16 19 21 20 24 23 21 20 24 24 23 22 21
26 26 22 20 24 20 20 19 18 15 13 13 12 16 17 29 26 29 24 17 27 24 17 16 17 22 23 24 24 24 22 25 26 24 23 25 25 25 25 23 25 24 21
29 25 24 25 22 23 21 20 21 21 18 18 19 20 27 28 26 26 27 21 20 19 20 18 19 20 25 23 24 24 26 26 27 28 23 21 25 24 23 24 24 24 23
30 24 28 23 20 25 21 21 20 22 24 22 21 22 28 28 28 29 29 26 22 22 22 22 21 18 22 24 23 22 23 24 25 28 29 26 23 25 26 25 25 24 25
28 28 30 22 24 22 22 22 21 19 23 25 27 30 35 31 24 25 28 27 25 23 25 25 25 24 20 21 25 25 27 25 26 25 26 28 28 28 27 27 24 24 23
27 27 27 27 20 22 23 21 22 21 21 22 25 32 39 38 28 26 27 28 30 30 26 25 28 29 28 26 24 26 26 27 28 27 27 27 29 29 26 26 25 22 21
27 27 28 29 26 22 26 24 22 23 22 22 22 25 45 34 32 32 31 31 31 32 33 32 29 26 26 29 33 33 30 29 29 27 28 31 29 27 26 26 24 24 25
28 27 27 30 30 24 23 26 25 25 24 23 24 23 37 35 31 33 33 32 33 34 35 35 37 36 31 29 27 28 34 34 31 30 29 29 30 28 29 26 25 28 25
25 27 23 30 30 31 23 26 27 25 27 26 24 25 31 35 34 34 31 32 34 33 33 35 36 36 38 40 34 29 28 27 31 31 29 27 28 29 31 31 29 26 28
18 18 26 20 29 29 31 23 28 30 26 29 28 26 29 33 35 35 35 36 35 32 33 35 36 36 36 36 39 40 35 32 32 30 33 32 27 26 30 30 25 26 28